iso_date,epoch_date,Year,Hour,Min,DOY,POS_DOY,Lat,Lon,BP,Ts,Ta,has_bp,has_ts,has_ta,BuoyID,Buoy_Type,Buoy_Owner,Logistics,Hemisphere
2015-09-12T20:00:57Z,1442088058,2015,20,0,255.834,255.834,80.682,166.4674,-999.00,-999.00,-999.0,no,no,no,90092,ITP,WHOI,NABOS,North
2015-09-12T21:00:00Z,1442091600,2015,21,0,255.875,255.875,80.6895,166.4706,-999.00,-999.00,-999.0,no,no,no,90092,ITP,WHOI,NABOS,North
2015-09-12T22:00:28Z,1442095229,2015,22,0,255.917,255.917,80.6982,166.4663,-999.00,-999.00,-999.0,no,no,no,90092,ITP,WHOI,NABOS,North
2015-09-12T23:00:57Z,1442098858,2015,23,0,255.959,255.959,80.7088,166.4607,-999.00,-999.00,-999.0,no,no,no,90092,ITP,WHOI,NABOS,North
2015-09-13T00:00:00Z,1442102400,2015,0,0,256.0,256.0,80.7197,166.4674,-999.00,-999.00,-999.0,no,no,no,90092,ITP,WHOI,NABOS,North
2015-09-13T01:00:28Z,1442106029,2015,1,0,256.042,256.042,80.7302,166.4895,-999.00,-999.00,-999.0,no,no,no,90092,ITP,WHOI,NABOS,North
2015-09-13T02:00:57Z,1442109658,2015,2,0,256.084,256.084,80.7386,166.5248,-999.00,-999.00,-999.0,no,no,no,90092,ITP,WHOI,NABOS,North
2015-09-13T03:00:00Z,1442113200,2015,3,0,256.125,256.125,80.7445,166.5628,-999.00,-999.00,-999.0,no,no,no,90092,ITP,WHOI,NABOS,North
2015-09-13T04:00:28Z,1442116829,2015,4,0,256.167,256.167,80.7477,166.6006,-999.00,-999.00,-999.0,no,no,no,90092,ITP,WHOI,NABOS,North
2015-09-13T05:00:57Z,1442120458,2015,5,0,256.209,256.209,80.7487,166.631,-999.00,-999.00,-999.0,no,no,no,90092,ITP,WHOI,NABOS,North
2015-09-13T06:00:00Z,1442124000,2015,6,0,256.25,256.25,80.7487,166.6465,-999.00,-999.00,-999.0,no,no,no,90092,ITP,WHOI,NABOS,North
2015-09-13T07:00:28Z,1442127629,2015,7,0,256.292,256.292,80.7493,166.6485,-999.00,-999.00,-999.0,no,no,no,90092,ITP,WHOI,NABOS,North
2015-09-13T08:00:57Z,1442131258,2015,8,0,256.334,256.334,80.7512,166.639,-999.00,-999.00,-999.0,no,no,no,90092,ITP,WHOI,NABOS,North
2015-09-13T09:00:00Z,1442134800,2015,9,0,256.375,256.375,80.7548,166.6183,-999.00,-999.00,-999.0,no,no,no,90092,ITP,WHOI,NABOS,North
2015-09-13T10:00:28Z,1442138429,2015,10,0,256.417,256.417,80.7614,166.609,-999.00,-999.00,-999.0,no,no,no,90092,ITP,WHOI,NABOS,North
2015-09-13T11:00:57Z,1442142058,2015,11,0,256.459,256.459,80.7687,166.6023,-999.00,-999.00,-999.0,no,no,no,90092,ITP,WHOI,NABOS,North
2015-09-13T11:41:16Z,1442144477,2015,11,41,256.487,256.487,80.7742,166.6037,-999.00,-999.00,-999.0,no,no,no,90092,ITP,WHOI,NABOS,North
2015-09-13T12:00:00Z,1442145600,2015,12,0,256.5,256.5,80.7767,166.6066,-999.00,-999.00,-999.0,no,no,no,90092,ITP,WHOI,NABOS,North
2015-09-13T13:00:28Z,1442149229,2015,13,0,256.542,256.542,80.784,166.6239,-999.00,-999.00,-999.0,no,no,no,90092,ITP,WHOI,NABOS,North
2015-09-13T14:00:57Z,1442152858,2015,14,0,256.584,256.584,80.7893,166.651,-999.00,-999.00,-999.0,no,no,no,90092,ITP,WHOI,NABOS,North
2015-09-13T15:00:00Z,1442156400,2015,15,0,256.625,256.625,80.7924,166.6837,-999.00,-999.00,-999.0,no,no,no,90092,ITP,WHOI,NABOS,North
2015-09-13T16:00:28Z,1442160029,2015,16,0,256.667,256.667,80.7927,166.7148,-999.00,-999.00,-999.0,no,no,no,90092,ITP,WHOI,NABOS,North
2015-09-13T17:00:57Z,1442163658,2015,17,0,256.709,256.709,80.791,166.7359,-999.00,-999.00,-999.0,no,no,no,90092,ITP,WHOI,NABOS,North
2015-09-13T18:00:00Z,1442167200,2015,18,0,256.75,256.75,80.7877,166.7443,-999.00,-999.00,-999.0,no,no,no,90092,ITP,WHOI,NABOS,North
2015-09-13T19:00:28Z,1442170829,2015,19,0,256.792,256.792,80.7842,166.7359,-999.00,-999.00,-999.0,no,no,no,90092,ITP,WHOI,NABOS,North
2015-09-13T20:00:57Z,1442174458,2015,20,0,256.834,256.834,80.7824,166.7139,-999.00,-999.00,-999.0,no,no,no,90092,ITP,WHOI,NABOS,North
2015-09-13T21:00:00Z,1442178000,2015,21,0,256.875,256.875,80.7825,166.683,-999.00,-999.00,-999.0,no,no,no,90092,ITP,WHOI,NABOS,North
2015-09-13T22:00:28Z,1442181629,2015,22,0,256.917,256.917,80.7846,166.6503,-999.00,-999.00,-999.0,no,no,no,90092,ITP,WHOI,NABOS,North
2015-09-13T23:00:57Z,1442185258,2015,23,0,256.959,256.959,80.7883,166.6249,-999.00,-999.00,-999.0,no,no,no,90092,ITP,WHOI,NABOS,North
2015-09-14T00:00:00Z,1442188800,2015,0,0,257.0,257.0,80.7926,166.6113,-999.00,-999.00,-999.0,no,no,no,90092,ITP,WHOI,NABOS,North
2015-09-14T01:00:28Z,1442192429,2015,1,0,257.042,257.042,80.795,166.6113,-999.00,-999.00,-999.0,no,no,no,90092,ITP,WHOI,NABOS,North
2015-09-14T02:00:57Z,1442196058,2015,2,0,257.084,257.084,80.7973,166.6238,-999.00,-999.00,-999.0,no,no,no,90092,ITP,WHOI,NABOS,North
2015-09-14T03:00:00Z,1442199600,2015,3,0,257.125,257.125,80.7979,166.6451,-999.00,-999.00,-999.0,no,no,no,90092,ITP,WHOI,NABOS,North
2015-09-14T04:00:28Z,1442203229,2015,4,0,257.167,257.167,80.7974,166.6689,-999.00,-999.00,-999.0,no,no,no,90092,ITP,WHOI,NABOS,North
2015-09-14T05:00:57Z,1442206858,2015,5,0,257.209,257.209,80.7968,166.6865,-999.00,-999.00,-999.0,no,no,no,90092,ITP,WHOI,NABOS,North
2015-09-14T06:00:00Z,1442210400,2015,6,0,257.25,257.25,80.7952,166.6928,-999.00,-999.00,-999.0,no,no,no,90092,ITP,WHOI,NABOS,North
2015-09-14T07:00:28Z,1442214029,2015,7,0,257.292,257.292,80.7914,166.6839,-999.00,-999.00,-999.0,no,no,no,90092,ITP,WHOI,NABOS,North
2015-09-14T08:00:57Z,1442217658,2015,8,0,257.334,257.334,80.7884,166.6618,-999.00,-999.00,-999.0,no,no,no,90092,ITP,WHOI,NABOS,North
2015-09-14T09:00:00Z,1442221200,2015,9,0,257.375,257.375,80.7884,166.6307,-999.00,-999.00,-999.0,no,no,no,90092,ITP,WHOI,NABOS,North
2015-09-14T10:00:28Z,1442224829,2015,10,0,257.417,257.417,80.7899,166.5968,-999.00,-999.00,-999.0,no,no,no,90092,ITP,WHOI,NABOS,North
2015-09-14T11:00:57Z,1442228458,2015,11,0,257.459,257.459,80.7914,166.569,-999.00,-999.00,-999.0,no,no,no,90092,ITP,WHOI,NABOS,North
2015-09-14T12:00:00Z,1442232000,2015,12,0,257.5,257.5,80.7951,166.5527,-999.00,-999.00,-999.0,no,no,no,90092,ITP,WHOI,NABOS,North
2015-09-14T13:00:28Z,1442235629,2015,13,0,257.542,257.542,80.7989,166.5517,-999.00,-999.00,-999.0,no,no,no,90092,ITP,WHOI,NABOS,North
2015-09-14T13:59:31Z,1442239171,2015,14,0,257.583,257.583,80.8022,166.5633,-999.00,-999.00,-999.0,no,no,no,90092,ITP,WHOI,NABOS,North
2015-09-14T15:00:00Z,1442242800,2015,15,0,257.625,257.625,80.8039,166.5843,-999.00,-999.00,-999.0,no,no,no,90092,ITP,WHOI,NABOS,North
2015-09-14T16:00:28Z,1442246429,2015,16,0,257.667,257.667,80.8035,166.6094,-999.00,-999.00,-999.0,no,no,no,90092,ITP,WHOI,NABOS,North
2015-09-14T17:00:57Z,1442250058,2015,17,0,257.709,257.709,80.8012,166.631,-999.00,-999.00,-999.0,no,no,no,90092,ITP,WHOI,NABOS,North
2015-09-14T18:00:00Z,1442253600,2015,18,0,257.75,257.75,80.7974,166.6425,-999.00,-999.00,-999.0,no,no,no,90092,ITP,WHOI,NABOS,North
2015-09-14T19:00:28Z,1442257229,2015,19,0,257.792,257.792,80.7929,166.6414,-999.00,-999.00,-999.0,no,no,no,90092,ITP,WHOI,NABOS,North
2015-09-14T19:59:31Z,1442260771,2015,20,0,257.833,257.833,80.7893,166.6284,-999.00,-999.00,-999.0,no,no,no,90092,ITP,WHOI,NABOS,North
2015-09-14T21:00:00Z,1442264400,2015,21,0,257.875,257.875,80.7883,166.6084,-999.00,-999.00,-999.0,no,no,no,90092,ITP,WHOI,NABOS,North
2015-09-14T22:00:28Z,1442268029,2015,22,0,257.917,257.917,80.7889,166.5876,-999.00,-999.00,-999.0,no,no,no,90092,ITP,WHOI,NABOS,North
2015-09-14T23:00:57Z,1442271658,2015,23,0,257.959,257.959,80.7894,166.5714,-999.00,-999.00,-999.0,no,no,no,90092,ITP,WHOI,NABOS,North
2015-09-15T00:00:00Z,1442275200,2015,0,0,258.0,258.0,80.7921,166.5647,-999.00,-999.00,-999.0,no,no,no,90092,ITP,WHOI,NABOS,North
2015-09-15T01:00:28Z,1442278829,2015,1,0,258.042,258.042,80.7949,166.5713,-999.00,-999.00,-999.0,no,no,no,90092,ITP,WHOI,NABOS,North
2015-09-15T01:59:31Z,1442282371,2015,1,59,258.083,258.083,80.7976,166.5916,-999.00,-999.00,-999.0,no,no,no,90092,ITP,WHOI,NABOS,North
2015-09-15T03:00:00Z,1442286000,2015,3,0,258.125,258.125,80.7992,166.6248,-999.00,-999.00,-999.0,no,no,no,90092,ITP,WHOI,NABOS,North
2015-09-15T04:00:28Z,1442289629,2015,4,0,258.167,258.167,80.7977,166.6651,-999.00,-999.00,-999.0,no,no,no,90092,ITP,WHOI,NABOS,North
2015-09-15T05:00:57Z,1442293258,2015,5,0,258.209,258.209,80.7962,166.705,-999.00,-999.00,-999.0,no,no,no,90092,ITP,WHOI,NABOS,North
2015-09-15T06:00:00Z,1442296800,2015,6,0,258.25,258.25,80.7917,166.737,-999.00,-999.00,-999.0,no,no,no,90092,ITP,WHOI,NABOS,North
2015-09-15T07:00:28Z,1442300429,2015,7,0,258.292,258.292,80.7867,166.7554,-999.00,-999.00,-999.0,no,no,no,90092,ITP,WHOI,NABOS,North
2015-09-15T08:00:57Z,1442304058,2015,8,0,258.334,258.334,80.7823,166.7622,-999.00,-999.00,-999.0,no,no,no,90092,ITP,WHOI,NABOS,North
2015-09-15T09:00:00Z,1442307600,2015,9,0,258.375,258.375,80.7793,166.7614,-999.00,-999.00,-999.0,no,no,no,90092,ITP,WHOI,NABOS,North
2015-09-15T10:00:28Z,1442311229,2015,10,0,258.417,258.417,80.7786,166.7592,-999.00,-999.00,-999.0,no,no,no,90092,ITP,WHOI,NABOS,North
2015-09-15T11:00:57Z,1442314858,2015,11,0,258.459,258.459,80.78,166.7646,-999.00,-999.00,-999.0,no,no,no,90092,ITP,WHOI,NABOS,North
2015-09-15T12:00:00Z,1442318400,2015,12,0,258.5,258.5,80.7828,166.7814,-999.00,-999.00,-999.0,no,no,no,90092,ITP,WHOI,NABOS,North
2015-09-15T13:00:28Z,1442322029,2015,13,0,258.542,258.542,80.7862,166.8138,-999.00,-999.00,-999.0,no,no,no,90092,ITP,WHOI,NABOS,North
2015-09-15T14:00:57Z,1442325658,2015,14,0,258.584,258.584,80.7888,166.8608,-999.00,-999.00,-999.0,no,no,no,90092,ITP,WHOI,NABOS,North
2015-09-15T15:00:00Z,1442329200,2015,15,0,258.625,258.625,80.7899,166.9174,-999.00,-999.00,-999.0,no,no,no,90092,ITP,WHOI,NABOS,North
2015-09-15T16:00:28Z,1442332829,2015,16,0,258.667,258.667,80.7888,166.9781,-999.00,-999.00,-999.0,no,no,no,90092,ITP,WHOI,NABOS,North
2015-09-15T17:00:57Z,1442336458,2015,17,0,258.709,258.709,80.7857,167.0371,-999.00,-999.00,-999.0,no,no,no,90092,ITP,WHOI,NABOS,North
2015-09-15T18:00:00Z,1442340000,2015,18,0,258.75,258.75,80.7807,167.0882,-999.00,-999.00,-999.0,no,no,no,90092,ITP,WHOI,NABOS,North
2015-09-15T19:00:28Z,1442343629,2015,19,0,258.792,258.792,80.7746,167.1264,-999.00,-999.00,-999.0,no,no,no,90092,ITP,WHOI,NABOS,North
2015-09-15T20:00:57Z,1442347258,2015,20,0,258.834,258.834,80.769,167.1527,-999.00,-999.00,-999.0,no,no,no,90092,ITP,WHOI,NABOS,North
2015-09-15T21:00:00Z,1442350800,2015,21,0,258.875,258.875,80.7646,167.1706,-999.00,-999.00,-999.0,no,no,no,90092,ITP,WHOI,NABOS,North
2015-09-15T22:00:28Z,1442354429,2015,22,0,258.917,258.917,80.7622,167.1852,-999.00,-999.00,-999.0,no,no,no,90092,ITP,WHOI,NABOS,North
2015-09-15T23:00:57Z,1442358058,2015,23,0,258.959,258.959,80.7617,167.2032,-999.00,-999.00,-999.0,no,no,no,90092,ITP,WHOI,NABOS,North
2015-09-16T00:00:00Z,1442361600,2015,0,0,259.0,259.0,80.7628,167.2294,-999.00,-999.00,-999.0,no,no,no,90092,ITP,WHOI,NABOS,North
2015-09-16T01:00:28Z,1442365229,2015,1,0,259.042,259.042,80.7646,167.2671,-999.00,-999.00,-999.0,no,no,no,90092,ITP,WHOI,NABOS,North
2015-09-16T02:00:57Z,1442368858,2015,2,0,259.084,259.084,80.7658,167.3146,-999.00,-999.00,-999.0,no,no,no,90092,ITP,WHOI,NABOS,North
2015-09-16T03:00:00Z,1442372400,2015,3,0,259.125,259.125,80.7656,167.3722,-999.00,-999.00,-999.0,no,no,no,90092,ITP,WHOI,NABOS,North
2015-09-16T04:00:28Z,1442376029,2015,4,0,259.167,259.167,80.7637,167.4335,-999.00,-999.00,-999.0,no,no,no,90092,ITP,WHOI,NABOS,North
2015-09-16T05:00:57Z,1442379658,2015,5,0,259.209,259.209,80.7595,167.4942,-999.00,-999.00,-999.0,no,no,no,90092,ITP,WHOI,NABOS,North
2015-09-16T06:00:00Z,1442383200,2015,6,0,259.25,259.25,80.7519,167.5452,-999.00,-999.00,-999.0,no,no,no,90092,ITP,WHOI,NABOS,North
2015-09-16T07:00:28Z,1442386829,2015,7,0,259.292,259.292,80.7436,167.5843,-999.00,-999.00,-999.0,no,no,no,90092,ITP,WHOI,NABOS,North
2015-09-16T08:00:57Z,1442390458,2015,8,0,259.334,259.334,80.7357,167.61,-999.00,-999.00,-999.0,no,no,no,90092,ITP,WHOI,NABOS,North
2015-09-16T09:00:00Z,1442394000,2015,9,0,259.375,259.375,80.7306,167.624,-999.00,-999.00,-999.0,no,no,no,90092,ITP,WHOI,NABOS,North
2015-09-16T10:00:28Z,1442397629,2015,10,0,259.417,259.417,80.7273,167.6333,-999.00,-999.00,-999.0,no,no,no,90092,ITP,WHOI,NABOS,North
2015-09-16T11:00:57Z,1442401258,2015,11,0,259.459,259.459,80.724,167.6465,-999.00,-999.00,-999.0,no,no,no,90092,ITP,WHOI,NABOS,North
2015-09-16T12:00:00Z,1442404800,2015,12,0,259.5,259.5,80.7243,167.6692,-999.00,-999.00,-999.0,no,no,no,90092,ITP,WHOI,NABOS,North
2015-09-16T13:00:28Z,1442408429,2015,13,0,259.542,259.542,80.7253,167.7047,-999.00,-999.00,-999.0,no,no,no,90092,ITP,WHOI,NABOS,North
2015-09-16T13:59:31Z,1442411971,2015,14,0,259.583,259.583,80.7253,167.751,-999.00,-999.00,-999.0,no,no,no,90092,ITP,WHOI,NABOS,North
2015-09-16T15:00:00Z,1442415600,2015,15,0,259.625,259.625,80.723,167.8053,-999.00,-999.00,-999.0,no,no,no,90092,ITP,WHOI,NABOS,North
2015-09-16T16:00:28Z,1442419229,2015,16,0,259.667,259.667,80.71,167.8585,-999.00,-999.00,-999.0,no,no,no,90092,ITP,WHOI,NABOS,North
2015-09-16T17:00:57Z,1442422858,2015,17,0,259.709,259.709,80.7077,167.8882,-999.00,-999.00,-999.0,no,no,no,90092,ITP,WHOI,NABOS,North
2015-09-16T18:00:00Z,1442426400,2015,18,0,259.75,259.75,80.6949,167.8872,-999.00,-999.00,-999.0,no,no,no,90092,ITP,WHOI,NABOS,North
2015-09-16T19:00:28Z,1442430029,2015,19,0,259.792,259.792,80.6877,167.8651,-999.00,-999.00,-999.0,no,no,no,90092,ITP,WHOI,NABOS,North
2015-09-16T20:00:57Z,1442433658,2015,20,0,259.834,259.834,80.6804,167.8228,-999.00,-999.00,-999.0,no,no,no,90092,ITP,WHOI,NABOS,North
2015-09-16T21:00:00Z,1442437200,2015,21,0,259.875,259.875,80.6751,167.7691,-999.00,-999.00,-999.0,no,no,no,90092,ITP,WHOI,NABOS,North
2015-09-16T22:00:28Z,1442440829,2015,22,0,259.917,259.917,80.6708,167.7171,-999.00,-999.00,-999.0,no,no,no,90092,ITP,WHOI,NABOS,North
2015-09-16T23:00:57Z,1442444458,2015,23,0,259.959,259.959,80.6665,167.6793,-999.00,-999.00,-999.0,no,no,no,90092,ITP,WHOI,NABOS,North
2015-09-17T00:00:00Z,1442448000,2015,0,0,260.0,260.0,80.6631,167.6638,-999.00,-999.00,-999.0,no,no,no,90092,ITP,WHOI,NABOS,North
2015-09-17T01:00:28Z,1442451629,2015,1,0,260.042,260.042,80.6646,167.6741,-999.00,-999.00,-999.0,no,no,no,90092,ITP,WHOI,NABOS,North
2015-09-17T01:59:31Z,1442455171,2015,2,0,260.083,260.083,80.6641,167.7036,-999.00,-999.00,-999.0,no,no,no,90092,ITP,WHOI,NABOS,North
2015-09-17T03:00:00Z,1442458800,2015,3,0,260.125,260.125,80.66,167.7425,-999.00,-999.00,-999.0,no,no,no,90092,ITP,WHOI,NABOS,North
2015-09-17T04:00:28Z,1442462429,2015,4,0,260.167,260.167,80.6535,167.7779,-999.00,-999.00,-999.0,no,no,no,90092,ITP,WHOI,NABOS,North
2015-09-17T05:00:57Z,1442466058,2015,5,0,260.209,260.209,80.6451,167.8033,-999.00,-999.00,-999.0,no,no,no,90092,ITP,WHOI,NABOS,North
2015-09-17T06:00:00Z,1442469600,2015,6,0,260.25,260.25,80.6378,167.8128,-999.00,-999.00,-999.0,no,no,no,90092,ITP,WHOI,NABOS,North
2015-09-17T07:00:28Z,1442473229,2015,7,0,260.292,260.292,80.6306,167.8004,-999.00,-999.00,-999.0,no,no,no,90092,ITP,WHOI,NABOS,North
2015-09-17T08:00:57Z,1442476858,2015,8,0,260.334,260.334,80.6172,167.7682,-999.00,-999.00,-999.0,no,no,no,90092,ITP,WHOI,NABOS,North
2015-09-17T09:00:00Z,1442480400,2015,9,0,260.375,260.375,80.6233,167.7253,-999.00,-999.00,-999.0,no,no,no,90092,ITP,WHOI,NABOS,North
2015-09-17T10:00:28Z,1442484029,2015,10,0,260.417,260.417,80.6115,167.6837,-999.00,-999.00,-999.0,no,no,no,90092,ITP,WHOI,NABOS,North
2015-09-17T11:00:57Z,1442487658,2015,11,0,260.459,260.459,80.6197,167.656,-999.00,-999.00,-999.0,no,no,no,90092,ITP,WHOI,NABOS,North
2015-09-17T12:00:00Z,1442491200,2015,12,0,260.5,260.5,80.6205,167.6479,-999.00,-999.00,-999.0,no,no,no,90092,ITP,WHOI,NABOS,North
2015-09-17T13:00:28Z,1442494829,2015,13,0,260.542,260.542,80.6214,167.6651,-999.00,-999.00,-999.0,no,no,no,90092,ITP,WHOI,NABOS,North
2015-09-17T13:59:31Z,1442498371,2015,14,0,260.583,260.583,80.6282,167.7043,-999.00,-999.00,-999.0,no,no,no,90092,ITP,WHOI,NABOS,North
2015-09-17T15:00:00Z,1442502000,2015,15,0,260.625,260.625,80.6282,167.756,-999.00,-999.00,-999.0,no,no,no,90092,ITP,WHOI,NABOS,North
2015-09-17T16:00:28Z,1442505629,2015,16,0,260.667,260.667,80.6213,167.8064,-999.00,-999.00,-999.0,no,no,no,90092,ITP,WHOI,NABOS,North
2015-09-17T17:00:57Z,1442509258,2015,17,0,260.709,260.709,80.6194,167.8456,-999.00,-999.00,-999.0,no,no,no,90092,ITP,WHOI,NABOS,North
2015-09-17T18:00:00Z,1442512800,2015,18,0,260.75,260.75,80.6164,167.8671,-999.00,-999.00,-999.0,no,no,no,90092,ITP,WHOI,NABOS,North
2015-09-17T19:00:28Z,1442516429,2015,19,0,260.792,260.792,80.611,167.8671,-999.00,-999.00,-999.0,no,no,no,90092,ITP,WHOI,NABOS,North
2015-09-17T19:59:31Z,1442519971,2015,20,0,260.833,260.833,80.6071,167.8477,-999.00,-999.00,-999.0,no,no,no,90092,ITP,WHOI,NABOS,North
2015-09-17T21:00:00Z,1442523600,2015,21,0,260.875,260.875,80.6045,167.8309,-999.00,-999.00,-999.0,no,no,no,90092,ITP,WHOI,NABOS,North
2015-09-17T22:00:28Z,1442527229,2015,22,0,260.917,260.917,80.6021,167.8222,-999.00,-999.00,-999.0,no,no,no,90092,ITP,WHOI,NABOS,North
2015-09-17T23:00:57Z,1442530858,2015,23,0,260.959,260.959,80.6008,167.8205,-999.00,-999.00,-999.0,no,no,no,90092,ITP,WHOI,NABOS,North
2015-09-18T00:00:00Z,1442534400,2015,0,0,261.0,261.0,80.6006,167.823,-999.00,-999.00,-999.0,no,no,no,90092,ITP,WHOI,NABOS,North
2015-09-18T01:00:28Z,1442538029,2015,1,0,261.042,261.042,80.603,167.8384,-999.00,-999.00,-999.0,no,no,no,90092,ITP,WHOI,NABOS,North
2015-09-18T02:00:57Z,1442541658,2015,2,0,261.084,261.084,80.6057,167.8778,-999.00,-999.00,-999.0,no,no,no,90092,ITP,WHOI,NABOS,North
2015-09-18T03:00:00Z,1442545200,2015,3,0,261.125,261.125,80.604,167.9352,-999.00,-999.00,-999.0,no,no,no,90092,ITP,WHOI,NABOS,North
2015-09-18T04:00:28Z,1442548829,2015,4,0,261.167,261.167,80.5997,167.995,-999.00,-999.00,-999.0,no,no,no,90092,ITP,WHOI,NABOS,North
2015-09-18T05:00:57Z,1442552458,2015,5,0,261.209,261.209,80.5955,168.0469,-999.00,-999.00,-999.0,no,no,no,90092,ITP,WHOI,NABOS,North
2015-09-18T06:00:00Z,1442556000,2015,6,0,261.25,261.25,80.5873,168.0827,-999.00,-999.00,-999.0,no,no,no,90092,ITP,WHOI,NABOS,North
2015-09-18T07:00:28Z,1442559629,2015,7,0,261.292,261.292,80.5791,168.1006,-999.00,-999.00,-999.0,no,no,no,90092,ITP,WHOI,NABOS,North
2015-09-18T08:00:57Z,1442563258,2015,8,0,261.334,261.334,80.5743,168.1001,-999.00,-999.00,-999.0,no,no,no,90092,ITP,WHOI,NABOS,North
2015-09-18T09:00:00Z,1442566800,2015,9,0,261.375,261.375,80.5723,168.0864,-999.00,-999.00,-999.0,no,no,no,90092,ITP,WHOI,NABOS,North
2015-09-18T10:00:28Z,1442570429,2015,10,0,261.417,261.417,80.5703,168.0632,-999.00,-999.00,-999.0,no,no,no,90092,ITP,WHOI,NABOS,North
2015-09-18T11:00:57Z,1442574058,2015,11,0,261.459,261.459,80.5683,168.039,-999.00,-999.00,-999.0,no,no,no,90092,ITP,WHOI,NABOS,North
2015-09-18T12:00:00Z,1442577600,2015,12,0,261.5,261.5,80.5678,168.023,-999.00,-999.00,-999.0,no,no,no,90092,ITP,WHOI,NABOS,North
2015-09-18T13:00:28Z,1442581229,2015,13,0,261.542,261.542,80.5673,168.028,-999.00,-999.00,-999.0,no,no,no,90092,ITP,WHOI,NABOS,North
2015-09-18T13:59:31Z,1442584771,2015,14,0,261.583,261.583,80.5703,168.0547,-999.00,-999.00,-999.0,no,no,no,90092,ITP,WHOI,NABOS,North
2015-09-18T15:00:00Z,1442588400,2015,15,0,261.625,261.625,80.5712,168.096,-999.00,-999.00,-999.0,no,no,no,90092,ITP,WHOI,NABOS,North
2015-09-18T16:00:28Z,1442592029,2015,16,0,261.667,261.667,80.57,168.1418,-999.00,-999.00,-999.0,no,no,no,90092,ITP,WHOI,NABOS,North
2015-09-18T17:00:57Z,1442595658,2015,17,0,261.709,261.709,80.5672,168.1826,-999.00,-999.00,-999.0,no,no,no,90092,ITP,WHOI,NABOS,North
2015-09-18T18:00:00Z,1442599200,2015,18,0,261.75,261.75,80.5632,168.2117,-999.00,-999.00,-999.0,no,no,no,90092,ITP,WHOI,NABOS,North
2015-09-18T19:00:28Z,1442602829,2015,19,0,261.792,261.792,80.559,168.2231,-999.00,-999.00,-999.0,no,no,no,90092,ITP,WHOI,NABOS,North
2015-09-18T19:59:31Z,1442606371,2015,20,0,261.833,261.833,80.5597,168.216,-999.00,-999.00,-999.0,no,no,no,90092,ITP,WHOI,NABOS,North
2015-09-18T21:00:00Z,1442610000,2015,21,0,261.875,261.875,80.5639,168.1935,-999.00,-999.00,-999.0,no,no,no,90092,ITP,WHOI,NABOS,North
2015-09-18T22:00:28Z,1442613629,2015,22,0,261.917,261.917,80.5681,168.1632,-999.00,-999.00,-999.0,no,no,no,90092,ITP,WHOI,NABOS,North
2015-09-18T23:00:57Z,1442617258,2015,23,0,261.959,261.959,80.5723,168.1342,-999.00,-999.00,-999.0,no,no,no,90092,ITP,WHOI,NABOS,North
2015-09-19T00:00:00Z,1442620800,2015,0,0,262.0,262.0,80.578,168.1142,-999.00,-999.00,-999.0,no,no,no,90092,ITP,WHOI,NABOS,North
2015-09-19T01:00:28Z,1442624429,2015,1,0,262.042,262.042,80.5837,168.114,-999.00,-999.00,-999.0,no,no,no,90092,ITP,WHOI,NABOS,North
2015-09-19T02:00:57Z,1442628058,2015,2,0,262.084,262.084,80.5929,168.1357,-999.00,-999.00,-999.0,no,no,no,90092,ITP,WHOI,NABOS,North
2015-09-19T03:00:00Z,1442631600,2015,3,0,262.125,262.125,80.5994,168.1749,-999.00,-999.00,-999.0,no,no,no,90092,ITP,WHOI,NABOS,North
2015-09-19T04:00:28Z,1442635229,2015,4,0,262.167,262.167,80.6,168.2251,-999.00,-999.00,-999.0,no,no,no,90092,ITP,WHOI,NABOS,North
2015-09-19T05:00:57Z,1442638858,2015,5,0,262.209,262.209,80.6007,168.2797,-999.00,-999.00,-999.0,no,no,no,90092,ITP,WHOI,NABOS,North
2015-09-19T06:00:00Z,1442642400,2015,6,0,262.25,262.25,80.5962,168.3219,-999.00,-999.00,-999.0,no,no,no,90092,ITP,WHOI,NABOS,North
2015-09-19T07:00:28Z,1442646029,2015,7,0,262.292,262.292,80.5914,168.3456,-999.00,-999.00,-999.0,no,no,no,90092,ITP,WHOI,NABOS,North
2015-09-19T08:00:57Z,1442649658,2015,8,0,262.334,262.334,80.5871,168.3544,-999.00,-999.00,-999.0,no,no,no,90092,ITP,WHOI,NABOS,North
2015-09-19T09:00:00Z,1442653200,2015,9,0,262.375,262.375,80.5833,168.359,-999.00,-999.00,-999.0,no,no,no,90092,ITP,WHOI,NABOS,North
2015-09-19T10:00:28Z,1442656829,2015,10,0,262.417,262.417,80.5823,168.3602,-999.00,-999.00,-999.0,no,no,no,90092,ITP,WHOI,NABOS,North
2015-09-19T11:00:57Z,1442660458,2015,11,0,262.459,262.459,80.584,168.3672,-999.00,-999.00,-999.0,no,no,no,90092,ITP,WHOI,NABOS,North
2015-09-19T12:00:00Z,1442664000,2015,12,0,262.5,262.5,80.5882,168.3863,-999.00,-999.00,-999.0,no,no,no,90092,ITP,WHOI,NABOS,North
2015-09-19T13:00:28Z,1442667629,2015,13,0,262.542,262.542,80.5934,168.421,-999.00,-999.00,-999.0,no,no,no,90092,ITP,WHOI,NABOS,North
2015-09-19T13:59:31Z,1442671171,2015,14,0,262.583,262.583,80.5981,168.4709,-999.00,-999.00,-999.0,no,no,no,90092,ITP,WHOI,NABOS,North
2015-09-19T15:00:00Z,1442674800,2015,15,0,262.625,262.625,80.6008,168.5308,-999.00,-999.00,-999.0,no,no,no,90092,ITP,WHOI,NABOS,North
2015-09-19T16:00:28Z,1442678429,2015,16,0,262.667,262.667,80.6011,168.5909,-999.00,-999.00,-999.0,no,no,no,90092,ITP,WHOI,NABOS,North
2015-09-19T17:00:57Z,1442682058,2015,17,0,262.709,262.709,80.5995,168.6465,-999.00,-999.00,-999.0,no,no,no,90092,ITP,WHOI,NABOS,North
2015-09-19T18:00:00Z,1442685600,2015,18,0,262.75,262.75,80.5959,168.6928,-999.00,-999.00,-999.0,no,no,no,90092,ITP,WHOI,NABOS,North
2015-09-19T19:00:28Z,1442689229,2015,19,0,262.792,262.792,80.5913,168.7232,-999.00,-999.00,-999.0,no,no,no,90092,ITP,WHOI,NABOS,North
2015-09-19T19:59:31Z,1442692771,2015,20,0,262.833,262.833,80.5872,168.7356,-999.00,-999.00,-999.0,no,no,no,90092,ITP,WHOI,NABOS,North
2015-09-19T21:00:00Z,1442696400,2015,21,0,262.875,262.875,80.5852,168.7328,-999.00,-999.00,-999.0,no,no,no,90092,ITP,WHOI,NABOS,North
2015-09-19T22:00:28Z,1442700029,2015,22,0,262.917,262.917,80.5859,168.7262,-999.00,-999.00,-999.0,no,no,no,90092,ITP,WHOI,NABOS,North
2015-09-19T23:00:57Z,1442703658,2015,23,0,262.959,262.959,80.5883,168.7279,-999.00,-999.00,-999.0,no,no,no,90092,ITP,WHOI,NABOS,North
2015-09-20T00:00:00Z,1442707200,2015,0,0,263.0,263.0,80.5918,168.7379,-999.00,-999.00,-999.0,no,no,no,90092,ITP,WHOI,NABOS,North
2015-09-20T01:00:28Z,1442710829,2015,1,0,263.042,263.042,80.5956,168.7614,-999.00,-999.00,-999.0,no,no,no,90092,ITP,WHOI,NABOS,North
2015-09-20T02:00:57Z,1442714458,2015,2,0,263.084,263.084,80.599,168.7986,-999.00,-999.00,-999.0,no,no,no,90092,ITP,WHOI,NABOS,North
2015-09-20T03:00:00Z,1442718000,2015,3,0,263.125,263.125,80.6009,168.8441,-999.00,-999.00,-999.0,no,no,no,90092,ITP,WHOI,NABOS,North
2015-09-20T04:00:28Z,1442721629,2015,4,0,263.167,263.167,80.601,168.8865,-999.00,-999.00,-999.0,no,no,no,90092,ITP,WHOI,NABOS,North
2015-09-20T05:00:57Z,1442725258,2015,5,0,263.209,263.209,80.6002,168.9194,-999.00,-999.00,-999.0,no,no,no,90092,ITP,WHOI,NABOS,North